contact:dominique.lefevre@mio.osupytheas.fr, maurice.libes@osupytheas.fr, didier.mallarino@osupytheas.fr
Project:EMSO http://www.emso-fr.org/EMSO-France
Depth: 2436.0 m
Title:EMSO Ligure Ouest : Data MII capteur AQUADOPP
Date,Latitude,Longitude,X_East,Y_North,Z_Up,Amplitude_X,Amplitude_Y,Amplitude_Z,Batterie,SoundSpeed,Heading,Pitch,Roll,Pressure,TIS,Speed,Direction
, degrees North, degrees East, m.s-1, m.s-1,m.s-1, 1, 1, 1, Volt, m.s-1, degree, degree, degree, dbar, degree_C, m.s-1, degree
2021-04-16T00:04:03,42.805,6.029,-0.057,-0.06,0.0,107.0,106.0,104.0,13.4,1505.2,326.8,-0.8,1.8,2469.111,13.28,0.082,223.5
2021-04-16T00:07:03,42.805,6.029,-0.073,-0.038,-0.038,107.0,105.0,103.0,13.4,1505.2,325.8,-0.8,1.8,2469.072,13.28,0.082,242.5
2021-04-16T00:10:03,42.805,6.029,-0.073,-0.05,-0.004,106.0,106.0,104.0,13.4,1505.2,328.3,-0.7,1.8,2469.104,13.28,0.088,235.6
2021-04-16T00:13:03,42.805,6.029,-0.112,-0.049,-0.03,106.0,108.0,104.0,13.3,1505.2,326.3,-0.7,1.9,2469.138,13.28,0.122,246.4
2021-04-16T00:16:03,42.805,6.029,-0.091,-0.031,0.025,107.0,107.0,103.0,13.4,1505.2,326.5,-0.8,1.8,2469.061,13.28,0.096,251.2
2021-04-16T00:19:03,42.805,6.029,-0.067,-0.048,0.007,106.0,107.0,104.0,13.3,1505.2,326.7,-0.7,1.9,2469.091,13.28,0.082,234.4
2021-04-16T00:22:03,42.805,6.029,-0.088,-0.047,-0.003,108.0,106.0,103.0,13.3,1505.2,325.5,-0.7,1.8,2469.101,13.28,0.099,241.9
2021-04-16T00:25:03,42.805,6.029,-0.083,-0.037,-0.009,108.0,107.0,103.0,13.3,1505.2,329.1,-0.7,1.8,2469.095,13.28,0.09,246.0
2021-04-16T00:28:03,42.805,6.029,-0.056,-0.045,0.008,106.0,106.0,103.0,13.4,1505.2,324.9,-0.7,1.8,2469.088,13.28,0.071,231.2
2021-04-16T00:31:03,42.805,6.029,-0.07,-0.041,0.035,108.0,106.0,104.0,13.3,1505.2,325.5,-0.8,1.8,2469.086,13.28,0.081,239.6
2021-04-16T00:34:03,42.805,6.029,-0.054,-0.058,0.022,108.0,105.0,103.0,13.3,1505.2,325.8,-0.8,1.9,2469.099,13.28,0.079,223.0
2021-04-16T00:37:03,42.805,6.029,-0.061,-0.04,-0.017,107.0,107.0,104.0,13.3,1505.2,326.3,-0.7,1.8,2469.067,13.28,0.072,236.7
2021-04-16T00:40:03,42.805,6.029,-0.06,-0.053,-0.009,107.0,105.0,103.0,13.4,1505.2,323.4,-0.7,1.8,2469.077,13.28,0.08,228.5
2021-04-16T00:43:03,42.805,6.029,-0.073,-0.046,-0.013,107.0,107.0,104.0,13.4,1505.2,328.0,-0.8,1.8,2469.106,13.28,0.086,237.8
2021-04-16T00:46:03,42.805,6.029,-0.069,-0.04,0.006,106.0,106.0,102.0,13.4,1505.2,326.2,-0.7,1.8,2469.137,13.28,0.079,239.9
2021-04-16T00:49:03,42.805,6.029,-0.099,-0.074,-0.017,106.0,107.0,103.0,13.4,1505.2,325.3,-0.8,1.8,2469.059,13.28,0.123,233.2
2021-04-16T00:52:03,42.805,6.029,-0.103,-0.053,-0.04,105.0,107.0,102.0,13.3,1505.2,327.2,-0.8,1.8,2469.09,13.28,0.115,242.8
2021-04-16T00:55:03,42.805,6.029,-0.085,-0.063,-0.017,107.0,106.0,103.0,13.4,1505.2,326.6,-0.7,1.8,2469.067,13.28,0.105,233.5
2021-04-16T00:58:03,42.805,6.029,-0.075,-0.062,-0.037,107.0,106.0,104.0,13.4,1505.2,327.2,-0.7,1.9,2469.125,13.28,0.097,230.4
2021-04-16T01:04:03,42.805,6.029,-0.064,-0.025,-0.002,106.0,105.0,103.0,13.3,1505.2,325.0,-0.8,1.8,2469.099,13.28,0.068,248.7
2021-04-16T01:07:03,42.805,6.029,-0.083,-0.051,-0.009,107.0,106.0,104.0,13.4,1505.2,326.2,-0.8,1.8,2469.138,13.28,0.097,238.4
2021-04-16T01:10:03,42.805,6.029,-0.066,-0.042,0.015,106.0,106.0,103.0,13.4,1505.2,324.5,-0.8,1.8,2469.099,13.28,0.078,237.5
2021-04-16T01:13:03,42.805,6.029,-0.107,-0.045,-0.024,106.0,106.0,105.0,13.4,1505.2,326.5,-0.8,1.8,2469.075,13.28,0.116,247.2
2021-04-16T01:16:03,42.805,6.029,-0.05,-0.066,0.004,107.0,105.0,104.0,13.4,1505.2,326.4,-0.7,1.8,2469.098,13.28,0.082,217.2
2021-04-16T01:19:03,42.805,6.029,-0.044,-0.041,-0.041,107.0,106.0,104.0,13.4,1505.2,324.8,-0.8,1.8,2469.153,13.28,0.06,227.0
2021-04-16T01:22:03,42.805,6.029,-0.085,-0.069,-0.016,105.0,107.0,104.0,13.3,1505.2,325.3,-0.8,1.8,2469.159,13.28,0.109,230.9
2021-04-16T01:25:03,42.805,6.029,-0.089,-0.049,-0.018,107.0,105.0,103.0,13.4,1505.2,327.2,-0.7,1.8,2469.157,13.28,0.101,241.2
2021-04-16T01:28:03,42.805,6.029,-0.056,-0.065,-0.025,107.0,107.0,103.0,13.3,1505.2,324.0,-0.8,1.8,2469.148,13.28,0.085,220.7
2021-04-16T01:31:03,42.805,6.029,-0.084,-0.035,0.008,107.0,106.0,102.0,13.3,1505.2,327.9,-0.8,1.8,2469.15,13.28,0.091,247.4
2021-04-16T01:34:03,42.805,6.029,-0.069,-0.05,-0.038,106.0,107.0,103.0,13.4,1505.2,326.4,-0.8,1.8,2469.151,13.28,0.085,234.1
2021-04-16T01:37:03,42.805,6.029,-0.074,-0.042,0.026,106.0,107.0,104.0,13.3,1505.2,324.0,-0.8,1.8,2469.155,13.28,0.085,240.4
2021-04-16T01:40:03,42.805,6.029,-0.061,-0.067,-0.011,107.0,106.0,103.0,13.4,1505.2,328.6,-0.8,1.8,2469.154,13.28,0.09,222.3
2021-04-16T01:43:03,42.805,6.029,-0.076,-0.071,-0.006,106.0,105.0,104.0,13.3,1505.2,327.0,-0.8,1.8,2469.135,13.28,0.104,227.0
2021-04-16T01:46:03,42.805,6.029,-0.081,-0.057,-0.027,106.0,105.0,102.0,13.4,1505.2,327.6,-0.8,1.9,2469.165,13.28,0.099,234.9
2021-04-16T01:49:03,42.805,6.029,-0.07,-0.057,0.007,106.0,105.0,104.0,13.4,1505.2,324.2,-0.8,1.8,2469.153,13.28,0.09,230.8
2021-04-16T01:52:03,42.805,6.029,-0.063,-0.054,-0.011,106.0,107.0,103.0,13.3,1505.2,324.2,-0.8,1.8,2469.203,13.28,0.082,229.4
2021-04-16T01:55:03,42.805,6.029,-0.079,-0.091,-0.017,105.0,105.0,104.0,13.3,1505.2,325.7,-0.8,1.8,2469.204,13.28,0.12,221.0
2021-04-16T01:58:03,42.805,6.029,-0.042,-0.038,-0.001,107.0,105.0,104.0,13.4,1505.2,325.5,-0.7,1.8,2469.193,13.28,0.056,227.9
2021-04-16T02:04:03,42.805,6.029,-0.074,-0.055,-0.013,106.0,107.0,104.0,13.4,1505.2,327.3,-0.7,1.8,2469.249,13.28,0.092,233.4
2021-04-16T02:07:03,42.805,6.029,-0.064,-0.07,-0.02,105.0,106.0,103.0,13.4,1505.2,325.9,-0.8,1.8,2469.244,13.28,0.094,222.4
2021-04-16T02:10:03,42.805,6.029,-0.065,-0.044,-0.03,107.0,106.0,105.0,13.4,1505.2,327.3,-0.7,1.8,2469.227,13.28,0.078,235.9
2021-04-16T02:13:03,42.805,6.029,-0.068,-0.061,-0.005,106.0,107.0,104.0,13.4,1505.2,325.9,-0.8,1.8,2469.244,13.28,0.091,228.1
2021-04-16T02:16:03,42.805,6.029,-0.055,-0.06,-0.011,106.0,107.0,104.0,13.4,1505.2,327.4,-0.8,1.8,2469.262,13.28,0.081,222.5
2021-04-16T02:19:03,42.805,6.029,-0.08,-0.047,-0.014,108.0,105.0,104.0,13.4,1505.2,328.4,-0.7,1.8,2469.271,13.28,0.092,239.6
2021-04-16T02:22:03,42.805,6.029,-0.078,-0.053,0.006,108.0,105.0,103.0,13.4,1505.2,325.1,-0.7,1.8,2469.237,13.28,0.094,235.8
2021-04-16T02:25:03,42.805,6.029,-0.041,-0.035,-0.025,107.0,106.0,102.0,13.4,1505.2,327.4,-0.7,1.8,2469.322,13.28,0.053,229.5
2021-04-16T02:28:03,42.805,6.029,-0.089,-0.047,-0.031,107.0,106.0,104.0,13.4,1505.2,325.9,-0.7,1.8,2469.249,13.28,0.1,242.2
2021-04-16T02:31:03,42.805,6.029,-0.084,-0.075,-0.013,106.0,106.0,104.0,13.4,1505.2,328.8,-0.8,1.9,2469.264,13.28,0.112,228.2
2021-04-16T02:34:03,42.805,6.029,-0.058,-0.046,-0.006,107.0,106.0,103.0,13.4,1505.2,325.9,-0.8,1.8,2469.263,13.28,0.074,231.6
2021-04-16T02:37:03,42.805,6.029,-0.082,-0.061,0.002,106.0,106.0,103.0,13.4,1505.2,323.5,-0.7,1.9,2469.305,13.28,0.102,233.4
2021-04-16T02:40:03,42.805,6.029,-0.08,-0.028,-0.023,106.0,105.0,103.0,13.3,1505.2,326.6,-0.8,1.8,2469.269,13.28,0.084,250.7
2021-04-16T02:43:03,42.805,6.029,-0.059,-0.06,-0.017,105.0,105.0,105.0,13.3,1505.2,325.8,-0.7,1.8,2469.296,13.28,0.084,224.5
2021-04-16T02:46:03,42.805,6.029,-0.073,-0.059,0.001,107.0,105.0,104.0,13.3,1505.2,326.7,-0.7,1.8,2469.297,13.28,0.093,231.1
2021-04-16T02:49:03,42.805,6.029,-0.068,-0.047,-0.016,107.0,106.0,104.0,13.4,1505.2,324.3,-0.8,1.8,2469.315,13.28,0.082,235.3
2021-04-16T02:52:03,42.805,6.029,-0.083,-0.055,-0.005,107.0,106.0,103.0,13.3,1505.2,324.2,-0.7,1.8,2469.298,13.28,0.099,236.5
2021-04-16T02:55:03,42.805,6.029,-0.076,-0.076,-0.059,106.0,106.0,103.0,13.4,1505.2,329.2,-0.8,1.8,2469.34,13.28,0.107,225.0
2021-04-16T02:58:03,42.805,6.029,-0.053,-0.057,-0.022,109.0,106.0,103.0,13.3,1505.2,326.3,-0.8,1.9,2469.352,13.28,0.077,222.9
2021-04-16T03:04:03,42.805,6.029,-0.047,-0.072,0.005,106.0,107.0,104.0,13.4,1505.2,323.7,-0.8,1.8,2469.357,13.28,0.085,213.1
2021-04-16T03:07:03,42.805,6.029,-0.067,-0.073,0.003,106.0,107.0,104.0,13.4,1505.2,325.9,-0.7,1.8,2469.403,13.28,0.099,222.5
2021-04-16T03:10:03,42.805,6.029,-0.071,-0.054,-0.034,107.0,106.0,103.0,13.3,1505.2,325.5,-0.7,1.8,2469.366,13.28,0.089,232.7
2021-04-16T03:13:03,42.805,6.029,-0.057,-0.072,-0.022,106.0,107.0,104.0,13.4,1505.2,327.5,-0.7,1.8,2469.394,13.28,0.091,218.4
2021-04-16T03:16:03,42.805,6.029,-0.083,-0.074,0.002,106.0,105.0,104.0,13.4,1505.2,327.0,-0.7,1.8,2469.372,13.28,0.111,228.3
2021-04-16T03:19:03,42.805,6.029,-0.079,-0.072,-0.016,107.0,106.0,104.0,13.4,1505.2,327.5,-0.8,1.8,2469.383,13.28,0.106,227.7
2021-04-16T03:22:03,42.805,6.029,-0.078,-0.056,-0.014,107.0,105.0,103.0,13.4,1505.2,325.2,-0.8,1.8,2469.375,13.28,0.096,234.3
2021-04-16T03:25:03,42.805,6.029,-0.09,-0.054,-0.038,107.0,106.0,103.0,13.4,1505.2,327.9,-0.8,1.8,2469.395,13.28,0.104,239.0
2021-04-16T03:28:03,42.805,6.029,-0.073,-0.037,0.003,106.0,106.0,103.0,13.3,1505.2,328.6,-0.7,1.8,2469.399,13.28,0.081,243.1
2021-04-16T03:31:03,42.805,6.029,-0.073,-0.05,-0.022,107.0,106.0,104.0,13.4,1505.2,327.5,-0.7,1.8,2469.459,13.28,0.088,235.6
2021-04-16T03:34:03,42.805,6.029,-0.064,-0.046,-0.032,107.0,106.0,103.0,13.4,1505.2,325.3,-0.8,1.8,2469.429,13.28,0.078,234.3
2021-04-16T03:37:03,42.805,6.029,-0.078,-0.037,0.002,106.0,105.0,104.0,13.4,1505.2,325.0,-0.7,1.8,2469.435,13.28,0.086,244.6
2021-04-16T03:40:03,42.805,6.029,-0.077,-0.065,0.029,106.0,105.0,104.0,13.4,1505.2,327.7,-0.7,1.8,2469.425,13.28,0.1,229.8
2021-04-16T03:43:03,42.805,6.029,-0.058,-0.073,-0.012,106.0,106.0,104.0,13.4,1505.2,328.0,-0.7,1.8,2469.45,13.28,0.093,218.5
2021-04-16T03:46:03,42.805,6.029,-0.051,-0.069,-0.016,107.0,105.0,104.0,13.3,1505.2,323.6,-0.8,1.8,2469.472,13.28,0.085,216.5
2021-04-16T03:49:03,42.805,6.029,-0.062,-0.051,-0.008,108.0,107.0,104.0,13.3,1505.2,327.5,-0.8,1.8,2469.475,13.28,0.08,230.6
2021-04-16T03:52:03,42.805,6.029,-0.075,-0.045,-0.037,107.0,106.0,103.0,13.4,1505.2,327.2,-0.7,1.8,2469.47,13.28,0.087,239.0
2021-04-16T03:55:03,42.805,6.029,-0.064,-0.065,-0.019,108.0,106.0,103.0,13.4,1505.2,324.9,-0.8,1.8,2469.472,13.28,0.091,224.6
2021-04-16T03:58:03,42.805,6.029,-0.069,-0.046,-0.019,107.0,106.0,104.0,13.4,1505.2,325.2,-0.7,1.8,2469.473,13.28,0.082,236.3
2021-04-16T04:04:03,42.805,6.029,-0.071,-0.06,-0.019,107.0,106.0,103.0,13.4,1505.2,325.0,-0.8,1.8,2469.502,13.28,0.092,229.8
2021-04-16T04:07:03,42.805,6.029,-0.075,-0.058,-0.011,107.0,106.0,103.0,13.3,1505.2,324.7,-0.7,1.8,2469.513,13.28,0.094,232.3
2021-04-16T04:10:03,42.805,6.029,-0.1,-0.064,0.005,107.0,106.0,103.0,13.3,1505.2,327.1,-0.8,1.8,2469.511,13.28,0.118,237.4
2021-04-16T04:13:03,42.805,6.029,-0.066,-0.081,0.0,105.0,106.0,103.0,13.3,1505.2,325.6,-0.7,1.8,2469.555,13.28,0.104,219.2
2021-04-16T04:16:03,42.805,6.029,-0.057,-0.073,-0.016,105.0,107.0,104.0,13.4,1505.2,328.8,-0.7,1.8,2469.515,13.28,0.092,218.0
2021-04-16T04:19:03,42.805,6.029,-0.059,-0.068,-0.003,107.0,106.0,104.0,13.3,1505.2,327.0,-0.8,1.8,2469.509,13.28,0.09,220.9
2021-04-16T04:22:03,42.805,6.029,-0.065,-0.072,-0.019,107.0,105.0,104.0,13.4,1505.2,323.8,-0.7,1.9,2469.556,13.28,0.097,222.1
2021-04-16T04:25:03,42.805,6.029,-0.071,-0.054,-0.013,107.0,105.0,102.0,13.4,1505.2,327.0,-0.7,1.8,2469.533,13.28,0.089,232.7
2021-04-16T04:28:03,42.805,6.029,-0.087,-0.061,-0.011,106.0,105.0,103.0,13.4,1505.2,327.8,-0.8,1.8,2469.545,13.28,0.106,235.0
2021-04-16T04:31:03,42.805,6.029,-0.058,-0.053,0.003,106.0,106.0,104.0,13.4,1505.2,323.8,-0.7,1.8,2469.582,13.28,0.078,227.6
2021-04-16T04:34:03,42.805,6.029,-0.07,-0.063,0.005,107.0,107.0,103.0,13.4,1505.2,325.5,-0.7,1.8,2469.539,13.28,0.094,228.0
2021-04-16T04:37:03,42.805,6.029,-0.071,-0.063,0.007,106.0,106.0,103.0,13.4,1505.2,327.0,-0.8,1.9,2469.565,13.28,0.094,228.4
2021-04-16T04:40:03,42.805,6.029,-0.044,-0.061,-0.003,106.0,107.0,104.0,13.4,1505.2,323.4,-0.8,1.9,2469.536,13.28,0.075,215.8
2021-04-16T04:43:03,42.805,6.029,-0.087,-0.047,0.002,107.0,105.0,103.0,13.4,1505.2,325.6,-0.7,1.9,2469.565,13.28,0.098,241.6
2021-04-16T04:46:03,42.805,6.029,-0.079,-0.067,-0.037,106.0,105.0,103.0,13.3,1505.2,326.7,-0.7,1.8,2469.568,13.28,0.103,229.7
2021-04-16T04:49:03,42.805,6.029,-0.072,-0.048,-0.001,106.0,107.0,104.0,13.4,1505.2,324.9,-0.7,1.9,2469.554,13.28,0.086,236.3
2021-04-16T04:52:03,42.805,6.029,-0.071,-0.054,-0.015,106.0,107.0,104.0,13.4,1505.2,325.7,-0.8,1.8,2469.56,13.28,0.089,232.7
2021-04-16T04:55:03,42.805,6.029,-0.069,-0.052,-0.017,106.0,105.0,103.0,13.4,1505.2,325.1,-0.7,1.8,2469.555,13.28,0.086,233.0
2021-04-16T04:58:03,42.805,6.029,-0.075,-0.082,-0.021,105.0,106.0,103.0,13.4,1505.2,324.5,-0.8,1.8,2469.585,13.28,0.111,222.4
2021-04-16T05:04:03,42.805,6.029,-0.062,-0.09,-0.052,106.0,106.0,103.0,13.4,1505.2,326.4,-0.7,1.8,2469.633,13.28,0.109,214.6
2021-04-16T05:07:03,42.805,6.029,-0.086,-0.06,-0.031,106.0,106.0,104.0,13.4,1505.2,326.5,-0.8,1.8,2469.659,13.28,0.104,235.1
2021-04-16T05:10:03,42.805,6.029,-0.046,-0.064,-0.015,107.0,107.0,102.0,13.3,1505.2,324.8,-0.8,1.8,2469.632,13.28,0.078,215.7
2021-04-16T05:13:03,42.805,6.029,-0.08,-0.058,-0.025,106.0,105.0,103.0,13.4,1505.2,325.4,-0.7,1.8,2469.644,13.28,0.098,234.1
2021-04-16T05:16:03,42.805,6.029,-0.058,-0.065,-0.01,106.0,105.0,103.0,13.4,1505.2,324.1,-0.7,1.8,2469.662,13.28,0.087,221.7
2021-04-16T05:19:03,42.805,6.029,-0.072,-0.064,-0.006,107.0,105.0,103.0,13.4,1505.2,324.0,-0.7,1.8,2469.676,13.28,0.096,228.4
2021-04-16T05:22:03,42.805,6.029,-0.06,-0.059,-0.045,107.0,106.0,103.0,13.3,1505.2,325.1,-0.7,1.8,2469.67,13.28,0.084,225.5
2021-04-16T05:25:03,42.805,6.029,-0.071,-0.045,-0.016,107.0,106.0,104.0,13.3,1505.2,327.7,-0.7,1.8,2469.672,13.28,0.084,237.6
2021-04-16T05:28:03,42.805,6.029,-0.08,-0.049,-0.005,106.0,106.0,104.0,13.3,1505.2,327.6,-0.7,1.8,2469.681,13.28,0.093,238.5
2021-04-16T05:31:03,42.805,6.029,-0.081,-0.064,-0.001,107.0,106.0,103.0,13.4,1505.2,324.2,-0.7,1.8,2469.681,13.28,0.103,231.7
2021-04-16T05:34:03,42.805,6.029,-0.043,-0.067,-0.007,106.0,106.0,103.0,13.4,1505.2,329.0,-0.7,1.8,2469.706,13.28,0.079,212.7
2021-04-16T05:37:03,42.805,6.029,-0.065,-0.058,-0.023,107.0,106.0,103.0,13.4,1505.2,326.3,-0.8,1.8,2469.753,13.28,0.087,228.3
2021-04-16T05:40:03,42.805,6.029,-0.077,-0.061,-0.003,106.0,105.0,103.0,13.4,1505.2,327.2,-0.8,1.8,2469.719,13.28,0.098,231.6
2021-04-16T05:43:03,42.805,6.029,-0.086,-0.066,-0.035,106.0,105.0,104.0,13.4,1505.2,323.5,-0.7,1.8,2469.693,13.28,0.108,232.5
2021-04-16T05:46:03,42.805,6.029,-0.084,-0.042,0.005,106.0,106.0,103.0,13.3,1505.2,325.8,-0.8,1.9,2469.694,13.28,0.093,243.4
2021-04-16T05:49:03,42.805,6.029,-0.084,-0.072,-0.01,107.0,104.0,103.0,13.4,1505.2,327.9,-0.7,1.8,2469.746,13.28,0.11,229.4
2021-04-16T05:52:03,42.805,6.029,-0.059,-0.029,-0.012,106.0,105.0,103.0,13.4,1505.2,327.1,-0.7,1.8,2469.725,13.28,0.065,243.8
2021-04-16T05:55:03,42.805,6.029,-0.082,-0.039,-0.014,107.0,105.0,103.0,13.4,1505.2,324.0,-0.7,1.8,2469.785,13.28,0.09,244.6
2021-04-16T05:58:03,42.805,6.029,-0.072,-0.058,-0.003,107.0,107.0,103.0,13.4,1505.2,328.5,-0.7,1.8,2469.758,13.28,0.092,231.1
2021-04-16T06:04:03,42.805,6.029,-0.076,-0.062,-0.028,106.0,105.0,103.0,13.4,1505.2,325.4,-0.8,1.8,2469.769,13.28,0.098,230.8
2021-04-16T06:07:03,42.805,6.029,-0.084,-0.086,-0.011,106.0,104.0,103.0,13.3,1505.2,323.8,-0.8,1.8,2469.758,13.28,0.12,224.3
2021-04-16T06:10:03,42.805,6.029,-0.076,-0.068,-0.008,106.0,106.0,103.0,13.4,1505.2,325.6,-0.7,1.8,2469.81,13.28,0.101,228.2
2021-04-16T06:13:03,42.805,6.029,-0.084,-0.058,-0.001,107.0,104.0,103.0,13.3,1505.2,325.4,-0.7,1.8,2469.748,13.28,0.102,235.4
2021-04-16T06:16:03,42.805,6.029,-0.083,-0.054,-0.012,106.0,106.0,103.0,13.4,1505.2,327.2,-0.7,1.8,2469.807,13.28,0.099,236.9
2021-04-16T06:19:03,42.805,6.029,-0.081,-0.067,-0.028,107.0,105.0,103.0,13.4,1505.2,325.1,-0.7,1.8,2469.793,13.28,0.105,230.4
2021-04-16T06:22:03,42.805,6.029,-0.047,-0.052,-0.007,106.0,107.0,103.0,13.4,1505.2,325.9,-0.8,1.8,2469.82,13.28,0.07,222.1
2021-04-16T06:25:03,42.805,6.029,-0.103,-0.055,-0.002,107.0,106.0,103.0,13.4,1505.2,325.0,-0.8,1.8,2469.765,13.28,0.116,241.9
2021-04-16T06:28:03,42.805,6.029,-0.074,-0.059,0.007,107.0,106.0,104.0,13.3,1505.2,327.1,-0.8,1.8,2469.808,13.28,0.094,231.4
2021-04-16T06:31:03,42.805,6.029,-0.066,-0.042,0.003,105.0,106.0,104.0,13.3,1505.2,325.7,-0.8,1.8,2469.804,13.28,0.078,237.5
2021-04-16T06:34:03,42.805,6.029,-0.064,-0.045,-0.028,108.0,105.0,103.0,13.4,1505.2,325.7,-0.7,1.8,2469.791,13.28,0.078,234.9
2021-04-16T06:37:03,42.805,6.029,-0.053,-0.091,-0.015,106.0,105.0,103.0,13.4,1505.2,326.4,-0.8,1.8,2469.806,13.28,0.105,210.2
2021-04-16T06:40:03,42.805,6.029,-0.068,-0.041,-0.01,106.0,105.0,104.0,13.3,1505.2,324.5,-0.7,1.9,2469.839,13.28,0.079,238.9
2021-04-16T06:43:03,42.805,6.029,-0.069,-0.046,-0.011,106.0,104.0,103.0,13.3,1505.2,325.4,-0.8,1.8,2469.842,13.28,0.082,236.3
2021-04-16T06:46:03,42.805,6.029,-0.056,-0.058,-0.022,107.0,106.0,103.0,13.4,1505.2,327.2,-0.8,1.8,2469.851,13.28,0.08,224.0
2021-04-16T06:49:03,42.805,6.029,-0.064,-0.073,-0.015,106.0,106.0,102.0,13.4,1505.2,326.2,-0.8,1.8,2469.834,13.28,0.097,221.2
2021-04-16T06:52:03,42.805,6.029,-0.084,-0.077,-0.005,105.0,105.0,104.0,13.4,1505.2,325.4,-0.8,1.8,2469.853,13.28,0.113,227.5
2021-04-16T06:55:03,42.805,6.029,-0.061,-0.092,0.002,106.0,105.0,104.0,13.4,1505.2,325.5,-0.7,1.9,2469.848,13.28,0.11,213.5
2021-04-16T06:58:03,42.805,6.029,-0.054,-0.04,-0.021,107.0,106.0,103.0,13.4,1505.2,327.6,-0.7,1.8,2469.866,13.28,0.067,233.5
2021-04-16T07:04:03,42.805,6.029,-0.062,-0.082,-0.028,106.0,106.0,104.0,13.4,1505.2,323.6,-0.7,1.8,2469.878,13.28,0.102,217.1
2021-04-16T07:07:03,42.805,6.029,-0.09,-0.061,-0.001,107.0,106.0,104.0,13.3,1505.2,329.0,-0.7,1.8,2469.893,13.28,0.108,235.9
2021-04-16T07:10:03,42.805,6.029,-0.087,-0.071,0.01,107.0,106.0,104.0,13.4,1505.2,325.0,-0.8,1.8,2469.872,13.28,0.112,230.8
2021-04-16T07:13:03,42.805,6.029,-0.078,-0.058,-0.025,106.0,106.0,103.0,13.4,1505.2,324.9,-0.8,1.9,2469.911,13.28,0.097,233.4
2021-04-16T07:16:03,42.805,6.029,-0.077,-0.08,-0.016,106.0,106.0,102.0,13.4,1505.2,328.7,-0.7,1.8,2469.88,13.28,0.111,223.9
2021-04-16T07:19:03,42.805,6.029,-0.055,-0.063,-0.014,106.0,106.0,103.0,13.4,1505.2,326.1,-0.7,1.8,2469.866,13.28,0.083,221.1
2021-04-16T07:22:03,42.805,6.029,-0.083,-0.081,-0.043,106.0,106.0,103.0,13.3,1505.2,324.1,-0.8,1.8,2469.924,13.28,0.115,225.7
2021-04-16T07:25:03,42.805,6.029,-0.094,-0.074,-0.013,107.0,105.0,102.0,13.3,1505.2,324.8,-0.7,1.8,2469.903,13.28,0.119,231.8
2021-04-16T07:28:03,42.805,6.029,-0.077,-0.063,0.006,106.0,106.0,102.0,13.4,1505.2,327.7,-0.7,1.8,2469.883,13.28,0.099,230.7
2021-04-16T07:31:03,42.805,6.029,-0.078,-0.056,-0.019,107.0,106.0,103.0,13.3,1505.2,326.1,-0.8,1.8,2469.87,13.28,0.096,234.3
2021-04-16T07:34:03,42.805,6.029,-0.068,-0.068,-0.034,105.0,106.0,103.0,13.4,1505.2,326.3,-0.8,1.8,2469.909,13.28,0.096,225.0
2021-04-16T07:37:03,42.805,6.029,-0.083,-0.081,-0.012,106.0,106.0,103.0,13.4,1505.2,324.9,-0.8,1.8,2469.915,13.28,0.115,225.7
2021-04-16T07:40:03,42.805,6.029,-0.082,-0.069,-0.03,107.0,105.0,102.0,13.4,1505.2,326.4,-0.8,1.9,2469.924,13.28,0.107,229.9
2021-04-16T07:43:03,42.805,6.029,-0.089,-0.063,-0.01,106.0,105.0,102.0,13.4,1505.2,328.5,-0.8,1.9,2469.868,13.28,0.109,234.7
2021-04-16T07:46:03,42.805,6.029,-0.082,-0.062,0.0,106.0,106.0,103.0,13.4,1505.2,326.8,-0.7,1.8,2469.921,13.28,0.102,232.9
2021-04-16T07:49:03,42.805,6.029,-0.105,-0.067,-0.018,106.0,106.0,102.0,13.4,1505.2,328.6,-0.8,1.9,2469.903,13.28,0.124,237.5
2021-04-16T07:52:03,42.805,6.029,-0.078,-0.074,-0.013,106.0,106.0,103.0,13.4,1505.2,326.7,-0.7,1.8,2469.94,13.28,0.107,226.5
2021-04-16T07:55:03,42.805,6.029,-0.067,-0.072,0.023,106.0,106.0,104.0,13.4,1505.2,328.9,-0.7,1.8,2469.899,13.28,0.098,222.9
2021-04-16T07:58:03,42.805,6.029,-0.078,-0.06,-0.01,106.0,106.0,103.0,13.4,1505.2,325.3,-0.8,1.8,2469.885,13.28,0.098,232.4
2021-04-16T08:04:03,42.805,6.029,-0.063,-0.046,-0.006,106.0,106.0,103.0,13.4,1505.2,327.1,-0.7,1.8,2469.98,13.28,0.078,233.9
2021-04-16T08:07:03,42.805,6.029,-0.088,-0.075,0.0,107.0,106.0,104.0,13.4,1505.2,324.7,-0.8,1.8,2469.934,13.28,0.115,229.6
2021-04-16T08:10:03,42.805,6.029,-0.055,-0.077,-0.004,107.0,106.0,103.0,13.3,1505.2,324.8,-0.7,1.8,2469.923,13.28,0.094,215.5
2021-04-16T08:13:03,42.805,6.029,-0.074,-0.07,-0.01,108.0,107.0,102.0,13.4,1505.2,324.2,-0.8,1.8,2469.919,13.28,0.101,226.6
2021-04-16T08:16:03,42.805,6.029,-0.07,-0.076,-0.029,108.0,106.0,103.0,13.4,1505.2,328.4,-0.7,1.8,2469.957,13.28,0.103,222.6
2021-04-16T08:19:03,42.805,6.029,-0.075,-0.068,0.012,107.0,107.0,104.0,13.4,1505.2,327.9,-0.7,1.8,2469.963,13.28,0.101,227.8
2021-04-16T08:22:03,42.805,6.029,-0.113,-0.069,-0.025,106.0,106.0,103.0,13.3,1505.2,327.1,-0.8,1.8,2469.942,13.28,0.132,238.6
2021-04-16T08:25:03,42.805,6.029,-0.065,-0.072,-0.009,107.0,106.0,103.0,13.3,1505.2,325.5,-0.7,1.9,2469.957,13.28,0.097,222.1
2021-04-16T08:28:03,42.805,6.029,-0.064,-0.081,-0.039,106.0,105.0,103.0,13.4,1505.2,325.1,-0.7,1.8,2469.969,13.28,0.103,218.3
2021-04-16T08:31:03,42.805,6.029,-0.082,-0.054,-0.015,106.0,106.0,101.0,13.4,1505.2,325.1,-0.7,1.8,2469.952,13.28,0.098,236.6
2021-04-16T08:34:03,42.805,6.029,-0.066,-0.073,0.014,107.0,105.0,104.0,13.4,1505.2,326.9,-0.8,1.8,2469.985,13.28,0.098,222.1
2021-04-16T08:37:03,42.805,6.029,-0.075,-0.076,-0.023,106.0,105.0,103.0,13.4,1505.2,327.7,-0.7,1.8,2469.956,13.28,0.106,224.6
2021-04-16T08:40:03,42.805,6.029,-0.075,-0.083,-0.03,106.0,106.0,103.0,13.4,1505.2,325.9,-0.8,1.9,2469.98,13.28,0.111,222.1
2021-04-16T08:43:03,42.805,6.029,-0.086,-0.088,-0.015,107.0,106.0,103.0,13.4,1505.2,324.7,-0.8,1.8,2470.001,13.28,0.123,224.3
2021-04-16T08:46:03,42.805,6.029,-0.07,-0.049,-0.019,107.0,106.0,102.0,13.4,1505.2,325.5,-0.8,1.8,2469.941,13.28,0.085,235.0
2021-04-16T08:49:03,42.805,6.029,-0.096,-0.063,-0.018,107.0,106.0,104.0,13.4,1505.2,327.1,-0.7,1.8,2469.995,13.28,0.114,236.7
2021-04-16T08:52:03,42.805,6.029,-0.063,-0.085,0.003,107.0,106.0,103.0,13.4,1505.2,323.2,-0.8,1.8,2469.989,13.28,0.105,216.5
2021-04-16T08:55:03,42.805,6.029,-0.065,-0.076,-0.046,106.0,106.0,103.0,13.4,1505.2,323.3,-0.7,1.8,2469.982,13.28,0.1,220.5
2021-04-16T08:58:03,42.805,6.029,-0.099,-0.076,0.0,106.0,105.0,103.0,13.4,1505.2,323.6,-0.7,1.8,2469.993,13.28,0.124,232.5
2021-04-16T09:04:03,42.805,6.029,-0.097,-0.064,0.005,107.0,107.0,103.0,13.3,1505.2,325.8,-0.8,1.9,2470.064,13.28,0.116,236.6
2021-04-16T09:07:03,42.805,6.029,-0.09,-0.07,-0.015,107.0,106.0,104.0,13.4,1505.2,326.8,-0.8,1.8,2470.025,13.28,0.114,232.1
2021-04-16T09:10:03,42.805,6.029,-0.076,-0.07,0.0,108.0,107.0,103.0,13.4,1505.2,324.7,-0.7,1.8,2470.028,13.28,0.103,227.4
2021-04-16T09:13:03,42.805,6.029,-0.107,-0.075,-0.003,106.0,106.0,103.0,13.3,1505.2,325.8,-0.7,1.8,2470.03,13.28,0.13,235.0
2021-04-16T09:16:03,42.805,6.029,-0.067,-0.074,-0.047,106.0,105.0,104.0,13.4,1505.2,327.8,-0.7,1.8,2470.01,13.28,0.099,222.2
2021-04-16T09:19:03,42.805,6.029,-0.073,-0.079,-0.008,108.0,108.0,102.0,13.4,1505.2,324.0,-0.8,1.8,2470.054,13.28,0.107,222.7
2021-04-16T09:22:03,42.805,6.029,-0.091,-0.054,-0.017,107.0,108.0,102.0,13.4,1505.2,324.0,-0.7,1.8,2470.074,13.28,0.105,239.3
2021-04-16T09:25:03,42.805,6.029,-0.099,-0.066,-0.006,108.0,106.0,104.0,13.3,1505.2,328.5,-0.7,1.9,2470.064,13.28,0.118,236.3
2021-04-16T09:28:03,42.805,6.029,-0.077,-0.06,-0.028,107.0,105.0,102.0,13.4,1505.2,325.1,-0.7,1.8,2470.043,13.28,0.097,232.1
2021-04-16T09:31:03,42.805,6.029,-0.082,-0.071,0.0,107.0,106.0,104.0,13.3,1505.2,326.0,-0.8,1.8,2470.054,13.28,0.108,229.1
2021-04-16T09:34:03,42.805,6.029,-0.106,-0.044,0.003,107.0,107.0,103.0,13.4,1505.2,328.3,-0.8,1.8,2470.044,13.28,0.114,247.5
2021-04-16T09:37:03,42.805,6.029,-0.089,-0.056,-0.012,107.0,107.0,103.0,13.4,1505.2,325.6,-0.8,1.8,2470.136,13.28,0.105,237.8
2021-04-16T09:40:03,42.805,6.029,-0.092,-0.06,-0.008,107.0,106.0,104.0,13.4,1505.2,325.4,-0.7,1.8,2470.074,13.28,0.109,236.9
2021-04-16T09:43:03,42.805,6.029,-0.099,-0.07,-0.004,107.0,105.0,103.0,13.4,1505.2,323.5,-0.7,1.8,2470.078,13.28,0.121,234.7
2021-04-16T09:46:03,42.805,6.029,-0.099,-0.061,-0.028,108.0,105.0,103.0,13.4,1505.2,328.3,-0.8,1.8,2470.061,13.28,0.116,238.4
2021-04-16T09:49:03,42.805,6.029,-0.118,-0.067,-0.003,107.0,106.0,103.0,13.3,1505.2,325.7,-0.7,1.8,2470.087,13.28,0.135,240.4